Theta_e
343 350 349 352 352 353 353 353 353 352 353 354 354 355 355 355 355 355 354 354 355 356 357 354 353 352 351 351 350 353 352 351 350 351 351 351 350 349 348 349 348 346 348
347 350 347 350 351 352 353 353 353 353 354 354 355 355 355 355 355 355 354 354 355 357 355 354 352 351 351 350 352 351 350 349 348 349 350 350 349 348 347 348 347 346 348
348 351 350 348 350 352 352 352 354 354 355 354 354 355 354 354 352 354 353 354 355 356 354 352 351 351 351 350 349 349 349 348 347 347 348 345 346 348 348 346 347 347 346
346 351 351 347 349 351 352 353 354 355 355 354 354 354 354 354 354 352 352 352 354 355 354 352 352 352 351 348 348 347 347 346 346 346 345 342 344 346 346 346 346 346 346
342 348 352 346 348 351 351 352 353 353 353 353 353 354 354 354 354 352 349 351 353 354 355 353 351 350 348 346 346 346 345 344 344 344 344 343 343 346 346 345 344 344 344
343 346 345 344 347 350 351 351 352 352 351 351 352 353 354 351 350 348 347 349 352 352 353 352 351 348 345 344 344 344 343 343 342 341 341 343 343 344 344 344 344 344 343
345 348 352 343 346 348 350 351 350 349 350 350 351 352 350 350 348 349 347 349 350 349 348 347 346 345 344 342 343 342 341 341 340 342 341 343 342 343 344 342 341 342 342
346 350 353 345 345 346 347 348 348 347 348 349 348 348 349 347 347 346 345 344 343 341 343 343 343 344 342 342 340 338 338 338 340 340 342 342 342 342 341 339 339 340 338
350 351 353 351 348 343 343 344 344 346 346 346 344 345 344 343 343 344 343 343 342 341 341 342 342 342 342 338 337 336 337 334 339 340 340 338 341 340 340 338 337 336 336
350 352 352 353 351 350 349 342 343 345 345 344 345 341 340 341 342 341 341 341 340 339 340 341 340 340 337 336 335 334 332 333 338 337 338 337 338 338 337 336 335 335 334
347 349 351 349 351 351 348 347 343 343 343 341 342 339 337 344 345 341 339 338 338 337 339 340 339 337 335 333 333 334 333 337 336 334 338 336 338 336 334 333 332 332 332
342 347 350 348 347 349 346 350 348 346 347 347 345 346 344 345 344 341 338 336 336 336 337 338 337 335 334 340 338 333 337 337 334 333 334 335 336 334 332 331 330 330 330
340 343 347 349 348 349 346 349 347 346 348 348 348 346 346 346 344 341 337 337 338 337 336 337 336 338 339 340 340 339 336 335 333 331 332 334 335 333 331 330 330 329 329
337 340 345 348 345 348 345 344 345 347 348 346 345 346 346 344 342 340 337 336 337 341 338 335 335 338 339 338 338 336 334 334 333 333 331 331 333 333 332 330 330 329 327
334 338 344 345 346 346 345 343 344 345 344 343 345 344 346 343 340 339 336 337 338 340 334 330 331 336 338 337 336 335 330 332 330 330 330 329 331 333 331 330 328 327 328
329 337 344 344 345 345 344 342 340 342 341 341 341 342 343 343 340 339 337 337 339 339 336 330 331 332 337 336 333 332 330 330 329 329 329 329 327 329 330 329 329 330 329
324 332 342 344 345 344 343 343 339 341 337 337 338 342 341 340 338 339 337 338 335 336 337 330 330 331 334 332 329 330 329 329 327 326 327 328 327 325 327 330 331 330 327
323 326 339 342 343 343 343 342 341 337 337 337 339 340 339 337 337 337 336 336 337 334 334 328 329 327 328 328 328 326 327 327 326 326 326 326 326 324 326 327 329 329 328
322 328 336 343 341 342 342 341 340 338 335 337 339 337 336 336 336 336 335 334 334 333 332 330 328 327 327 326 326 326 326 324 324 324 325 326 327 326 326 325 325 325 327
324 330 336 342 340 341 341 338 336 333 334 334 334 334 336 334 333 332 331 331 330 331 331 330 326 326 327 326 324 323 325 325 325 324 324 325 326 326 326 327 326 323 323
327 332 336 340 339 340 335 331 331 328 331 331 332 333 333 333 332 331 330 330 329 330 328 328 326 324 323 325 322 322 323 325 325 324 325 323 325 324 326 327 325 323 323
328 333 336 338 338 338 334 334 333 332 330 333 333 331 331 329 330 329 329 328 327 327 326 325 325 322 323 326 321 318 314 317 322 324 325 324 326 324 323 326 326 324 325
327 332 335 337 338 337 336 334 333 331 330 329 328 329 334 333 334 332 331 328 325 327 324 324 324 323 319 324 326 320 313 311 317 321 324 323 325 323 324 324 324 324 325
327 332 335 336 337 336 336 333 330 327 324 327 328 330 331 332 331 332 331 328 326 324 323 323 325 324 323 322 323 323 323 321 315 314 321 322 324 323 326 324 324 324 325
326 330 335 335 335 335 334 333 330 328 327 328 328 328 328 328 327 328 326 326 324 324 323 323 322 323 324 325 321 323 322 322 322 317 313 318 321 324 324 326 325 325 325
322 331 335 333 333 332 333 332 331 328 326 325 327 326 325 326 323 321 321 324 323 322 321 322 322 322 324 325 324 324 322 319 319 318 316 318 318 321 324 326 326 326 326
Wind_Speed
7 15 13 14 13 12 11 12 14 15 15 15 13 13 13 14 13 12 13 14 14 16 17 17 15 13 11 11 12 12 13 14 15 17 17 18 18 17 15 12 16 18 16
12 14 11 11 11 11 9 9 12 14 15 16 15 14 13 13 13 13 13 14 14 16 17 17 15 14 14 14 12 13 14 14 14 15 17 18 17 16 13 12 18 17 17
13 15 15 10 10 10 10 9 9 13 15 16 16 15 16 14 13 13 13 13 14 15 17 16 16 16 15 14 14 13 13 13 14 15 15 14 15 18 20 20 18 19 19
14 14 14 11 10 10 10 9 10 13 15 16 16 15 15 15 14 16 15 13 14 16 16 17 17 17 16 13 13 13 14 13 11 11 9 13 15 18 20 20 19 21 20
13 14 14 13 11 11 10 10 10 12 15 16 16 15 15 16 15 16 17 13 15 16 16 17 17 16 14 12 13 14 13 12 10 9 11 11 12 16 20 19 19 18 18
12 11 19 14 12 12 11 10 10 10 10 12 15 17 17 19 19 16 15 14 15 16 16 17 16 17 13 14 13 13 12 11 12 11 10 12 14 17 19 20 20 18 18
11 10 13 11 12 11 11 10 10 10 10 11 14 16 17 16 16 14 15 15 16 16 16 15 15 17 15 13 13 12 10 10 6 13 10 12 15 20 20 20 20 19 19
11 10 12 12 10 10 9 9 9 9 9 12 13 14 16 13 14 15 16 14 11 3 4 12 16 16 16 15 13 10 8 8 9 12 12 11 17 19 19 19 18 17 19
10 10 11 12 12 8 8 8 7 8 9 7 10 6 12 13 13 15 10 10 12 12 8 9 14 14 15 13 12 9 7 3 9 8 10 11 15 18 18 17 16 17 17
10 10 9 11 11 11 10 8 7 7 7 8 6 6 8 9 12 15 13 11 12 13 8 11 14 15 12 12 11 9 4 5 6 10 9 11 15 16 17 16 15 15 16
11 10 9 8 10 9 10 9 9 8 8 8 8 10 11 9 14 16 13 13 12 14 15 16 15 14 12 9 10 9 9 4 5 6 7 15 17 16 15 15 14 14 14
14 13 12 10 10 9 8 9 11 11 10 10 11 11 10 10 12 13 12 14 15 14 15 14 19 19 16 11 8 7 7 5 4 7 8 15 16 15 16 15 13 13 13
16 12 13 12 11 12 8 7 6 6 6 7 10 10 10 9 7 9 7 6 8 12 9 10 11 10 14 10 10 10 5 4 6 6 12 13 16 15 15 14 14 14 14
19 17 14 13 12 14 9 7 7 6 6 6 9 12 8 7 9 9 8 11 9 7 9 10 7 10 13 15 15 13 7 10 8 9 11 12 13 15 16 14 14 14 14
18 19 16 15 14 12 8 4 7 7 7 7 8 10 9 8 9 10 10 8 8 8 7 6 9 12 13 14 14 13 8 12 8 8 9 11 12 14 15 14 14 14 14
17 18 17 17 15 13 12 11 6 7 7 7 7 9 14 9 10 10 9 9 7 7 9 9 9 10 11 12 12 11 13 7 7 5 11 9 10 12 11 13 14 14 14
16 17 18 17 16 15 15 13 8 7 6 7 7 11 12 11 11 10 8 6 8 8 9 11 10 9 10 11 12 11 8 9 8 8 11 11 10 10 11 12 14 14 13
17 18 19 16 16 16 13 11 9 7 5 9 10 8 12 13 13 11 8 8 7 6 7 7 10 8 10 9 8 7 9 9 10 9 11 10 9 8 8 11 13 14 13
17 16 19 18 18 16 13 9 8 10 7 7 7 6 10 10 10 7 6 6 8 7 8 8 7 7 10 7 7 8 9 9 10 9 11 13 11 8 8 11 11 11 11
16 17 19 16 17 16 11 9 8 6 8 7 7 6 11 9 12 8 5 5 8 8 9 9 11 8 12 10 10 10 9 9 10 10 9 10 13 13 12 13 10 8 11
14 17 20 19 18 13 9 10 9 7 8 7 7 8 8 7 9 9 6 8 10 12 10 13 9 12 11 11 6 7 5 5 4 3 4 9 13 13 13 12 10 9 10
15 17 19 20 20 14 12 11 9 8 7 8 8 9 10 9 9 7 7 7 10 10 11 12 13 9 8 9 11 8 6 2 4 6 7 7 6 10 10 10 12 12 11
16 17 19 20 19 16 16 10 9 8 6 7 8 9 12 14 14 13 14 10 7 12 11 13 12 14 9 10 14 9 7 6 9 7 7 7 7 8 9 11 11 10 10
17 17 18 19 19 18 17 13 14 11 9 9 8 8 7 6 9 10 13 11 12 9 12 13 11 10 11 12 10 9 9 9 11 7 8 10 9 9 9 9 10 12 12
19 16 17 18 19 18 17 14 12 11 8 8 7 5 9 6 5 7 8 12 13 9 15 16 13 9 9 12 11 10 9 7 11 9 10 10 10 11 10 10 8 8 11
19 17 16 19 19 18 17 16 15 13 10 8 7 7 6 4 3 3 1 8 13 10 12 14 16 15 11 12 11 10 7 7 6 7 6 10 12 9 9 9 10 7 8
Wind_Direction
121 129 148 153 159 161 168 166 166 167 165 161 162 162 158 154 153 147 143 139 143 146 146 143 142 137 128 115 109 102 96 96 95 98 102 107 111 115 120 130 116 104 101
136 140 153 153 152 161 170 172 171 173 169 167 163 167 162 158 158 155 150 147 151 152 146 145 146 144 138 133 120 114 111 107 106 110 113 109 111 114 118 103 97 103 102
138 140 166 150 147 160 174 175 177 177 174 171 165 168 169 163 166 158 155 154 154 153 145 148 150 149 139 127 122 119 114 117 122 133 143 126 107 103 100 94 101 105 104
143 142 158 148 148 157 162 169 173 177 178 174 169 167 166 166 172 169 162 161 157 150 151 155 156 141 133 129 123 121 123 128 144 159 133 125 117 110 105 106 110 107 105
146 144 136 154 153 157 162 170 175 178 177 173 166 168 169 171 173 175 172 161 160 155 158 160 149 134 126 123 124 126 132 148 162 167 125 119 117 116 115 113 110 112 105
151 154 136 152 160 161 166 173 174 172 170 170 168 173 175 182 185 185 180 172 166 165 166 161 152 132 126 126 129 133 146 168 180 123 108 117 115 118 109 98 98 101 106
151 146 152 158 162 164 169 173 172 188 166 167 173 178 186 185 185 178 176 178 178 169 169 155 137 128 129 129 134 140 164 197 125 113 129 115 116 113 108 106 104 102 101
160 162 151 167 172 166 168 173 171 174 172 169 191 192 194 186 173 179 182 189 188 98 173 146 142 133 137 140 145 153 180 223 118 124 124 120 115 113 114 110 107 106 107
165 172 156 174 181 177 173 180 175 176 180 169 208 210 193 181 182 181 162 127 112 143 170 160 139 137 141 144 149 168 196 248 137 130 128 120 121 119 117 116 115 116 117
172 181 167 176 179 186 188 180 175 178 179 184 217 148 158 155 139 129 129 135 142 121 153 160 169 150 142 153 155 164 173 231 130 135 133 117 125 129 127 123 123 123 125
183 187 179 189 184 181 195 185 181 174 186 160 166 145 151 174 165 154 156 156 157 164 164 161 146 144 150 159 158 162 199 144 160 99 114 132 131 130 128 122 121 123 122
193 193 181 180 187 191 194 184 202 194 203 206 199 182 193 185 185 179 175 171 179 180 172 166 149 152 163 167 172 185 201 132 115 119 125 134 134 138 134 133 136 129 126
205 195 200 178 187 188 187 197 197 190 204 210 206 192 204 181 176 183 167 181 205 194 183 145 156 175 181 181 176 192 197 137 138 136 133 137 139 143 137 143 140 139 133
196 198 192 179 197 195 187 191 199 196 198 201 207 205 193 182 177 183 192 187 193 186 189 164 172 201 184 185 180 188 142 217 166 126 137 134 140 146 148 149 145 145 145
222 192 186 201 191 193 189 168 206 206 199 202 203 205 205 191 182 183 186 194 181 180 176 170 186 200 186 184 185 173 175 226 142 133 136 138 147 152 153 157 159 156 157
220 202 178 197 195 183 189 180 188 201 188 197 218 209 209 203 196 192 192 188 186 180 174 169 214 195 180 178 177 196 186 160 163 149 129 151 149 151 156 167 160 161 160
220 207 179 193 194 187 192 171 187 195 175 191 207 212 201 208 198 191 177 180 192 175 185 175 202 200 179 168 186 178 167 159 170 174 142 149 159 154 148 173 169 165 170
223 212 181 186 192 195 189 180 164 169 186 192 208 207 197 205 198 186 185 186 192 157 174 181 181 195 204 192 145 158 170 164 169 179 155 160 164 163 169 176 166 167 182
221 211 183 184 192 193 189 182 185 160 195 203 201 194 188 205 200 189 179 166 169 157 170 162 171 177 211 144 142 183 153 171 163 177 156 162 173 149 176 173 176 167 175
217 197 184 181 191 188 174 171 189 175 194 184 192 194 191 192 204 192 191 171 171 172 173 165 167 193 231 148 183 157 165 159 173 174 180 170 164 166 200 172 181 183 179
211 186 183 178 189 186 165 176 184 178 195 191 194 180 187 195 196 193 198 194 183 172 171 178 173 195 242 158 184 112 72 92 131 161 192 187 165 174 214 170 183 198 184
201 191 182 181 188 170 185 179 184 194 193 195 191 188 198 188 189 188 182 181 186 170 176 181 176 182 219 168 157 133 141 107 185 183 183 219 222 185 200 198 187 197 188
206 190 191 183 190 177 195 172 171 180 184 195 192 204 208 202 200 201 207 189 197 178 179 181 177 182 184 189 168 164 156 183 171 184 181 191 233 211 209 199 213 219 223
199 191 195 183 188 182 190 177 179 181 186 201 206 207 202 210 223 222 201 187 193 192 177 184 178 182 180 182 184 182 192 186 172 166 193 197 217 207 226 214 203 212 218
182 192 193 181 184 178 189 182 177 189 192 183 189 180 196 190 222 239 218 208 193 202 181 180 181 178 198 186 179 197 184 234 180 169 180 187 202 206 203 218 227 205 216
178 179 177 180 186 175 184 186 187 186 184 161 173 183 174 184 167 145 311 200 190 165 178 175 177 192 203 203 189 191 200 203 186 207 173 186 188 198 207 206 196 229 214